Theta_e
327 327 331 332 332 331 327 327 329 329 329 328 328 327 328 327 325 326 327 327 328 328 327 330 330 325 327 327 328 328 328 326 326 326 327 330 327 327 326 325 327 328 326 331 332 330 325 324 324 324 323 323 323 319 317 316 317 318 316 317 318 318
329 330 331 330 331 330 333 329 332 334 333 330 328 327 328 325 325 325 327 326 327 329 327 326 334 329 327 328 325 329 328 328 328 327 328 328 326 328 328 328 328 327 326 326 326 318 319 322 325 323 323 323 318 318 317 317 316 316 317 316 319 320
329 330 331 332 330 331 327 331 329 329 330 328 329 327 328 327 325 324 324 324 329 330 328 327 330 327 327 328 326 329 328 329 328 327 329 326 328 328 328 328 327 326 326 325 319 318 317 317 317 322 322 319 316 316 316 317 316 316 316 317 318 323
327 328 329 334 330 329 331 334 330 325 326 324 330 325 327 325 326 326 321 326 325 326 326 328 329 329 328 326 325 328 327 327 326 326 328 323 326 325 325 325 325 325 323 320 318 317 317 317 317 317 317 317 316 316 316 316 317 316 317 319 319 323
331 331 328 329 331 335 334 330 329 328 326 323 327 324 326 325 328 328 324 325 323 326 326 326 325 325 324 324 323 323 322 321 321 320 325 319 319 319 320 319 319 321 319 319 319 317 318 317 318 317 316 316 316 316 317 317 317 317 316 317 318 324
328 330 328 328 330 332 330 330 328 329 329 323 327 325 325 327 326 329 325 323 326 326 325 324 324 324 324 324 323 321 321 320 320 320 321 319 318 319 319 319 319 319 318 318 317 317 318 319 315 316 315 316 316 316 316 316 315 316 315 316 317 323
327 328 329 329 331 332 329 333 331 331 325 323 327 325 322 328 327 328 326 326 325 324 323 324 322 323 323 323 322 321 320 320 319 318 319 319 319 319 319 319 318 318 318 317 317 317 316 317 317 315 315 315 315 315 315 314 314 315 315 316 318 323
329 329 329 330 332 326 328 327 328 331 328 326 323 325 326 329 328 326 326 325 326 324 321 321 322 322 321 322 321 321 320 319 318 317 319 319 318 318 319 319 318 318 317 317 316 316 316 316 316 316 316 315 315 315 315 315 314 315 314 314 315 319
328 329 330 330 328 327 329 328 326 329 326 325 325 326 331 326 327 325 325 324 325 325 322 321 322 321 321 321 320 320 319 317 317 318 319 318 318 318 318 318 318 317 317 316 315 316 316 315 317 316 315 314 315 315 314 314 314 314 314 314 314 316
327 326 330 332 330 328 328 328 325 326 327 327 326 327 329 325 327 325 324 323 324 324 324 322 322 322 319 321 320 320 318 318 317 318 318 318 318 319 318 318 318 318 317 316 315 315 316 315 315 315 317 315 315 314 314 314 313 313 313 313 314 315
326 327 330 328 328 328 327 327 327 325 321 325 324 328 326 326 324 327 325 323 323 324 324 322 322 321 320 320 319 319 318 318 317 317 318 317 319 319 318 318 318 318 318 317 315 315 315 315 315 314 317 315 315 315 314 314 313 313 312 312 313 313
327 329 330 326 327 325 323 326 326 323 320 323 327 327 322 323 327 325 324 323 325 324 325 323 324 321 320 319 317 317 317 317 317 317 318 318 318 318 318 318 319 318 319 318 317 317 316 315 315 314 315 315 315 314 313 313 313 313 313 313 312 312
326 328 327 326 326 327 324 324 323 321 322 320 326 324 322 323 326 325 326 323 325 324 324 322 322 322 321 318 318 317 316 317 317 318 318 318 318 318 318 318 318 319 318 317 317 316 316 315 315 315 315 315 315 314 313 312 312 313 313 312 312 312
326 327 327 325 328 324 326 326 325 322 324 322 328 325 324 327 327 324 325 324 324 322 322 322 320 321 321 319 319 317 316 316 317 318 318 318 317 317 317 317 318 317 318 316 315 315 314 314 314 315 314 315 315 315 314 313 313 313 313 312 312 312
327 327 326 325 324 324 326 326 322 321 324 324 325 326 327 326 323 323 323 323 324 324 323 321 321 321 321 320 317 317 316 316 317 318 317 318 317 318 317 317 317 315 315 315 315 314 313 313 313 313 314 319 314 314 314 313 313 313 313 312 313 312
326 327 327 327 326 329 327 330 325 321 326 326 323 322 324 323 322 321 322 323 324 324 322 322 321 321 320 318 317 317 316 319 318 318 318 319 318 316 316 316 317 316 313 313 313 312 313 313 314 314 314 314 315 316 313 313 313 313 313 313 312 312
325 324 326 324 326 327 329 325 325 326 324 328 323 322 323 324 323 323 323 321 323 324 322 321 321 321 320 318 317 317 317 318 319 318 318 319 317 317 316 314 316 320 317 313 312 311 312 313 313 314 314 314 314 316 313 313 313 313 314 312 312 312
327 326 329 328 327 329 329 325 326 328 327 327 321 322 325 324 323 323 324 322 323 323 322 321 321 321 320 320 318 318 318 318 318 318 319 317 316 316 316 316 314 315 316 313 312 311 311 312 312 312 313 314 314 313 313 312 313 315 312 311 311 311
326 327 328 330 330 328 332 328 326 331 324 324 325 323 323 324 323 323 322 323 324 325 322 322 321 321 321 320 319 319 319 319 318 318 318 316 314 315 315 315 314 313 314 313 311 312 311 313 311 311 312 315 313 313 314 315 313 313 312 312 312 313
326 326 326 327 324 321 321 323 323 326 322 323 323 322 323 322 323 320 321 322 322 324 322 324 321 321 321 320 320 320 320 319 318 317 317 316 313 313 314 314 314 313 312 312 312 312 312 311 311 312 312 313 313 315 313 314 312 312 313 312 312 313
327 326 323 322 322 320 318 319 321 319 323 321 321 323 322 323 324 321 322 321 321 324 324 322 323 321 320 321 321 321 321 319 318 318 317 315 315 314 315 315 314 314 312 310 310 312 312 312 309 308 310 311 312 315 315 313 312 311 312 312 312 312
325 325 322 323 324 322 320 319 318 317 318 318 317 319 319 322 324 322 323 323 323 323 322 322 322 322 321 320 320 319 321 319 319 317 318 316 317 318 315 314 314 311 312 312 311 312 312 311 307 306 305 305 307 313 315 312 312 311 312 312 312 312
325 323 322 323 324 323 323 323 322 321 319 319 322 325 322 322 326 322 322 323 323 323 321 320 319 320 318 319 321 320 320 323 319 318 317 315 315 315 315 314 314 312 311 312 313 313 313 312 306 308 308 305 302 302 307 308 311 312 312 313 312 312
323 323 322 323 322 324 323 325 325 326 322 322 321 324 326 324 323 323 319 322 323 323 320 319 317 317 318 321 321 319 319 323 319 319 317 315 314 313 314 314 314 314 313 310 310 311 313 313 311 308 302 303 303 303 300 302 305 310 312 312 312 312
323 323 323 322 324 324 324 323 325 326 324 327 324 323 320 319 320 321 320 323 321 321 320 318 319 317 318 319 322 323 319 319 321 320 318 316 314 314 314 315 315 314 314 311 310 311 312 313 311 315 309 304 302 300 300 303 306 307 311 310 311 312
323 323 322 321 323 325 323 323 322 319 318 319 318 318 317 316 317 319 317 324 319 319 320 320 318 317 318 320 321 322 320 317 319 322 320 319 316 317 314 314 315 315 314 314 313 310 309 313 314 314 314 313 307 301 302 304 305 299 308 313 312 312
323 323 322 322 321 324 322 323 320 319 319 318 318 318 322 322 321 322 322 321 324 323 319 319 320 317 318 319 320 320 320 318 317 319 321 319 318 318 315 315 317 315 314 315 314 310 310 310 312 313 313 312 312 312 312 306 302 304 300 305 310 310
322 321 321 322 321 322 321 321 321 320 320 320 319 318 320 321 321 324 322 321 319 324 318 320 318 317 316 318 319 319 318 320 318 316 319 318 317 318 318 316 318 317 316 315 314 312 311 311 309 310 314 311 311 312 313 313 312 305 303 301 303 309
322 321 321 320 320 321 321 321 320 320 321 319 319 318 321 321 322 324 321 323 322 317 320 321 319 318 317 318 319 319 318 317 318 318 318 316 316 317 316 316 316 316 315 315 315 315 312 311 311 310 310 311 312 311 311 311 312 311 306 302 303 304
320 320 321 321 321 319 320 322 320 320 318 320 320 319 320 321 319 322 320 321 320 322 322 322 321 318 319 317 318 319 318 318 318 318 320 317 317 317 317 317 317 317 316 315 316 315 313 313 313 312 312 313 309 309 308 308 309 308 308 307 303 303
319 321 320 320 320 319 320 319 317 317 317 314 315 317 318 318 319 322 318 318 321 322 323 322 323 322 318 317 319 320 319 318 319 320 318 317 318 317 317 318 317 317 317 316 314 315 315 314 314 312 311 313 312 310 308 307 307 308 307 305 304 305
319 319 320 319 320 319 321 320 319 319 316 315 314 314 317 314 314 313 315 318 321 322 320 321 322 323 321 318 320 322 321 320 320 320 318 318 319 319 318 319 318 316 316 317 315 315 314 313 314 312 311 313 315 313 311 310 310 309 308 308 306 305
318 319 320 320 319 319 318 317 318 317 318 318 316 314 315 315 314 318 318 316 317 316 318 319 321 318 317 319 320 321 321 322 320 320 319 318 319 319 318 319 317 317 316 315 315 315 314 313 314 312 311 312 315 314 312 312 313 312 311 310 309 306
317 319 319 319 319 318 318 319 320 318 318 318 318 318 317 315 316 318 320 319 317 317 316 317 317 317 318 317 320 319 320 321 320 319 319 319 318 319 319 318 317 316 316 317 316 315 314 314 314 315 313 312 312 315 314 314 313 312 311 310 308 307
316 317 318 318 318 319 318 318 318 318 318 318 318 320 318 317 317 316 317 318 318 320 319 316 317 319 318 319 319 319 320 320 320 320 319 319 319 319 320 319 317 317 316 317 316 316 314 314 313 313 313 312 313 312 316 315 315 313 313 312 310 308
317 317 318 319 318 318 318 319 319 319 319 318 319 319 319 318 320 318 319 316 316 319 319 319 319 320 319 319 320 319 319 319 320 320 319 318 318 317 319 318 318 316 315 316 316 315 314 314 313 313 313 312 312 311 312 317 315 315 314 314 313 311
317 316 316 318 319 318 319 317 317 318 318 317 316 316 318 317 317 319 318 320 319 317 320 321 318 319 319 322 321 322 320 320 320 320 320 319 318 317 317 318 316 316 314 316 314 315 315 314 313 313 312 313 311 311 311 314 317 315 316 315 315 313
Wind_Speed
5 4 3 2 2 2 1 4 6 8 6 9 7 12 10 11 13 12 12 12 8 5 5 4 3 5 10 9 13 14 14 12 9 8 11 15 15 18 14 14 17 18 14 11 18 16 17 17 17 14 14 13 15 3 4 5 5 4 4 4 6 6
3 3 2 1 2 1 2 5 3 2 3 4 7 10 5 5 9 6 12 7 6 2 5 5 2 6 4 6 9 16 15 16 15 17 15 17 16 13 15 19 21 20 20 20 20 9 8 12 15 18 17 17 8 6 7 8 8 7 8 6 6 8
4 4 6 2 3 3 5 4 4 6 5 7 5 6 4 5 5 7 8 6 5 3 3 4 4 9 8 12 11 15 17 16 16 17 15 17 15 19 24 21 22 21 20 18 10 6 7 8 7 14 13 7 6 6 7 7 7 7 6 6 6 14
4 5 5 2 1 3 3 3 4 5 6 5 3 5 4 6 4 4 8 5 6 6 6 4 9 13 11 6 7 12 17 14 15 14 20 11 17 17 18 17 19 18 12 8 7 7 6 6 5 4 4 6 5 6 7 6 4 5 6 6 6 16
3 2 5 4 4 2 1 4 4 4 5 5 4 5 4 4 3 3 6 5 8 6 7 5 5 6 6 6 6 6 5 6 7 7 14 8 8 10 10 10 8 9 7 8 6 6 4 3 4 5 6 6 7 6 5 5 5 4 5 5 7 19
5 4 3 4 4 3 5 3 4 4 3 5 4 4 4 3 4 3 5 7 6 5 6 5 6 7 6 5 5 6 7 7 7 6 9 6 7 8 8 8 8 7 8 6 7 7 5 4 6 5 5 4 5 5 5 5 5 6 6 7 8 20
4 5 4 3 3 2 3 2 3 3 4 4 3 3 4 3 3 4 5 6 6 5 7 5 7 7 5 6 5 7 7 6 7 7 7 7 8 8 7 7 6 7 7 8 8 6 6 6 5 5 5 5 6 6 5 5 5 6 7 8 10 22
3 3 3 3 2 5 4 5 4 3 3 4 5 3 3 3 3 4 6 6 6 5 6 6 7 7 6 6 7 5 6 8 7 6 9 9 9 8 7 7 6 8 8 7 6 7 5 5 5 3 5 5 5 5 5 6 7 7 7 8 9 17
5 4 3 4 4 4 3 3 4 2 3 4 3 4 2 4 3 4 6 7 7 5 6 6 6 7 6 6 6 6 7 6 8 10 9 7 8 7 7 6 6 7 6 7 6 5 5 4 3 3 4 5 5 6 6 7 7 8 7 6 7 11
4 5 3 2 3 3 4 3 3 3 4 3 3 4 3 4 4 4 4 6 7 6 5 6 6 6 7 5 6 6 7 7 9 8 8 7 7 6 6 6 7 8 9 8 7 6 4 4 5 4 3 4 4 5 5 6 6 6 7 6 7 8
5 4 4 5 3 3 4 3 3 3 4 3 3 3 3 3 4 3 4 6 6 6 6 6 6 6 6 5 7 6 6 8 8 8 7 8 7 7 6 7 8 8 8 9 7 7 6 7 6 6 3 5 6 4 5 4 5 5 6 6 7 8
5 3 5 5 5 5 5 4 4 4 4 4 3 3 4 3 3 4 6 6 5 6 6 5 6 7 7 6 7 8 6 8 8 7 7 7 8 7 8 9 10 9 7 8 6 6 7 6 6 6 7 7 5 5 5 5 6 6 7 6 7 8
5 4 4 6 5 4 5 6 4 4 4 6 3 3 3 3 4 4 5 7 6 7 5 6 7 7 8 7 6 6 7 8 6 7 7 10 10 7 7 7 8 8 8 9 8 7 8 5 6 7 6 6 6 5 5 3 4 5 6 6 7 8
4 4 4 5 5 4 4 4 4 4 4 5 3 3 3 3 4 4 4 7 6 8 7 6 7 7 7 5 5 6 7 8 7 8 7 7 7 6 7 7 7 7 9 8 8 7 7 7 6 6 5 5 6 4 4 6 5 6 6 7 6 7
3 4 4 4 5 4 4 3 3 4 3 4 3 2 3 3 4 4 4 5 5 6 7 7 7 6 6 5 8 7 8 7 5 5 6 6 6 6 6 7 6 8 8 6 8 8 8 7 7 8 6 2 5 8 5 6 6 7 7 7 7 8
4 4 4 4 3 2 3 2 3 4 3 3 3 4 4 4 5 5 5 5 6 6 6 6 5 6 6 7 7 6 5 3 5 5 6 5 5 7 7 7 6 5 7 6 7 9 8 8 7 7 6 4 3 4 4 5 5 6 7 7 7 9
4 4 4 4 3 3 2 2 2 1 3 2 3 4 3 4 5 4 4 5 5 5 6 6 6 6 6 7 6 6 6 7 5 5 4 4 5 6 6 8 7 3 3 5 9 11 10 8 7 6 3 4 3 3 4 6 5 6 6 8 7 8
3 3 1 2 2 3 2 0 2 1 1 1 4 3 3 4 5 4 4 4 5 5 5 6 6 7 7 7 6 7 8 9 6 5 4 4 5 7 7 7 8 8 7 7 7 9 10 8 8 7 5 5 5 5 4 5 5 6 5 7 7 8
4 4 4 3 2 4 1 3 1 1 3 3 3 3 3 3 5 4 4 5 5 4 4 4 4 7 6 6 6 6 7 8 6 6 5 4 6 7 7 9 9 9 6 7 6 8 9 7 9 7 7 4 4 3 3 4 4 5 6 6 7 10
3 4 4 5 4 4 5 4 3 2 2 2 3 3 4 4 4 5 5 5 5 4 4 3 4 7 6 6 5 4 5 7 7 7 7 5 7 8 9 9 9 10 8 7 7 8 10 8 9 7 8 5 5 3 4 5 5 6 5 7 7 7
3 4 4 4 4 4 4 4 5 4 4 4 4 3 4 3 2 5 4 5 5 5 3 4 4 6 5 5 5 5 5 6 7 7 6 7 7 9 8 5 7 8 9 7 7 8 9 8 8 7 7 6 3 1 3 6 5 5 5 6 6 6
4 4 5 4 4 4 4 3 4 4 5 3 4 4 3 3 3 5 4 4 4 5 5 4 4 5 6 6 6 6 4 5 5 7 7 8 7 5 6 7 7 7 9 9 5 9 9 8 7 8 7 7 6 2 3 6 5 7 5 5 6 6
3 4 4 4 4 3 3 2 2 2 3 3 3 0 1 1 2 5 4 3 3 4 6 4 5 6 6 5 5 5 5 3 5 6 7 7 7 6 6 8 8 7 7 7 7 7 6 7 7 7 5 6 7 7 5 6 6 3 6 3 6 7
3 3 3 3 4 3 2 2 2 1 0 1 2 2 2 3 2 2 6 4 3 3 5 6 7 7 5 4 4 5 6 3 4 5 5 5 7 9 7 7 8 9 8 8 9 7 7 7 6 8 7 5 5 5 8 8 11 5 4 4 6 7
3 3 3 4 3 3 3 4 3 3 5 2 2 3 3 4 4 5 4 2 3 4 4 6 5 6 6 4 3 3 5 5 3 4 4 5 5 6 7 6 7 7 7 7 8 7 7 7 8 3 1 5 4 4 5 7 9 4 5 4 6 7
4 2 3 4 3 2 3 3 3 5 5 4 4 4 4 4 5 4 4 3 4 3 3 3 6 5 6 5 4 3 4 6 4 4 3 3 3 4 6 7 6 6 6 7 6 8 8 7 7 7 4 3 3 1 5 5 4 7 7 1 2 7
3 3 3 3 4 3 3 2 3 3 2 3 3 2 2 2 3 2 3 4 2 3 4 4 5 5 6 6 5 4 4 5 5 4 3 4 4 3 5 6 5 6 6 7 7 7 8 8 7 7 9 7 4 4 3 3 5 6 9 7 3 5
4 4 3 2 4 3 3 2 3 3 2 2 2 2 3 2 1 1 2 3 6 2 4 4 5 7 7 6 5 6 5 4 5 7 5 5 6 4 4 5 6 6 7 7 7 7 7 7 7 7 5 5 8 8 5 2 0 1 5 8 10 6
4 4 3 3 3 3 2 2 3 3 2 3 3 3 2 2 2 1 3 2 3 6 3 3 4 6 6 6 6 6 7 6 5 5 5 5 7 7 6 6 6 6 7 7 6 6 6 6 7 6 7 6 6 7 7 5 4 3 4 6 8 9
5 3 3 4 3 3 3 2 3 2 4 2 2 3 3 2 3 3 2 2 2 1 3 4 3 5 7 6 7 7 7 8 6 6 4 4 6 7 6 5 6 6 6 6 7 5 7 6 5 4 5 3 6 8 7 7 7 8 4 2 7 9
4 3 4 3 3 3 3 3 3 3 4 6 5 3 2 4 3 3 3 3 2 2 2 3 4 3 6 6 5 5 6 7 7 5 6 5 4 5 6 5 6 6 5 6 6 6 6 7 5 6 7 3 4 6 5 6 9 8 7 7 8 8
4 4 4 3 3 3 2 2 2 2 4 4 5 5 3 3 4 6 4 3 4 3 3 4 3 3 3 5 5 4 4 4 6 5 5 5 4 5 5 5 5 6 6 5 7 7 6 8 7 6 7 5 3 4 6 5 5 6 6 7 6 7
5 4 3 4 4 3 3 3 3 4 3 3 4 4 5 3 4 3 4 4 4 5 5 2 3 4 5 5 4 3 4 3 4 5 5 5 4 5 5 4 5 4 5 7 6 8 6 9 8 6 6 6 2 3 4 4 4 5 6 6 5 8
6 5 4 3 4 4 3 3 3 3 4 3 3 3 3 4 3 3 2 3 3 4 4 6 4 4 4 6 3 5 5 3 4 5 6 5 6 4 4 4 5 5 5 4 6 6 7 8 8 7 6 5 6 2 2 3 4 5 6 7 8 9
6 5 4 4 3 3 4 3 4 3 3 3 3 3 3 2 2 4 4 2 3 2 3 5 4 3 5 4 4 4 6 4 4 5 5 5 5 4 3 4 5 7 5 4 4 6 6 7 9 9 7 7 6 5 1 3 3 5 4 4 5 7
6 6 5 4 4 3 4 3 3 3 3 3 3 2 2 2 2 3 2 4 4 3 3 3 4 2 3 3 3 3 5 4 4 4 4 5 5 5 4 5 4 6 6 6 5 5 6 6 8 8 7 7 7 7 8 2 3 3 4 4 4 4
6 6 5 5 5 4 3 4 3 3 3 3 3 3 3 1 1 2 2 2 2 3 3 1 3 2 3 2 3 2 3 3 4 4 4 5 6 6 5 5 5 5 7 5 7 6 5 6 7 7 7 7 7 7 8 8 3 3 2 4 2 1
Wind_Direction
66 13 14 328 342 318 307 292 215 227 309 1 9 360 15 7 15 359 358 359 0 17 319 305 17 352 345 325 344 353 344 340 322 305 286 268 344 337 350 336 342 7 349 276 275 303 11 357 353 352 345 332 339 334 316 335 339 319 307 320 318 320
9 3 308 274 326 304 27 339 334 54 331 11 14 356 28 16 21 3 352 2 340 354 326 327 52 331 349 315 337 347 359 342 1 348 337 4 339 320 349 358 21 7 0 353 352 4 3 353 354 351 347 349 351 10 6 356 349 345 339 334 337 323
21 355 312 54 332 31 20 305 26 19 343 21 12 358 35 17 34 7 337 0 317 322 338 304 358 353 339 0 341 350 3 343 5 339 3 2 326 18 10 8 10 6 360 352 349 352 5 2 1 352 334 347 22 6 358 350 346 338 332 333 330 324
21 360 331 336 91 43 341 316 44 39 331 27 346 12 26 11 29 3 347 348 339 345 347 339 7 355 338 359 345 350 358 354 354 341 16 344 5 6 7 355 7 2 343 335 333 10 10 354 341 324 345 9 5 2 352 343 327 324 320 319 316 318
62 44 347 348 348 79 357 10 27 35 344 29 333 20 11 21 352 12 2 352 355 346 338 349 7 350 331 4 342 2 340 354 352 344 11 353 14 16 8 2 354 346 331 321 344 358 356 330 317 4 8 358 5 349 327 324 317 309 310 321 324 324
17 4 45 350 349 360 42 359 29 11 6 22 336 27 357 18 328 31 25 352 349 345 343 345 11 350 336 351 337 8 350 9 336 9 16 346 17 21 8 355 349 339 337 333 351 348 336 346 4 12 7 352 352 346 342 334 335 336 338 340 340 334
42 336 34 327 343 0 47 24 7 17 26 346 15 17 354 350 337 40 30 349 352 357 344 356 7 343 345 336 18 11 349 359 351 10 2 0 24 16 5 348 346 341 336 343 343 325 349 360 9 355 345 359 358 346 340 335 340 351 356 351 342 339
6 27 8 323 26 23 20 9 346 33 42 1 25 356 315 358 356 34 33 353 356 11 339 13 1 340 348 341 28 352 355 12 340 9 17 18 7 6 357 343 343 336 339 334 324 335 353 0 355 336 352 359 354 341 336 351 0 2 357 352 344 337
2 5 15 351 11 39 15 0 356 22 15 34 23 307 324 18 5 28 33 4 350 17 343 18 0 340 355 346 19 358 12 8 350 28 14 8 4 353 346 335 336 333 335 326 338 335 347 348 332 344 3 345 355 346 351 6 5 2 354 344 335 329
45 356 340 3 358 42 350 4 12 353 44 28 352 297 31 37 353 33 30 13 348 17 346 9 7 335 350 348 17 18 357 17 18 11 8 3 350 351 335 336 339 342 341 337 338 341 336 344 331 341 4 348 355 351 8 15 6 356 347 336 328 325
62 3 349 355 22 33 351 15 4 2 38 5 339 337 20 46 5 16 42 21 357 13 7 6 6 336 344 12 11 21 360 20 21 12 7 354 355 346 339 351 347 341 337 330 340 339 351 342 338 342 343 11 351 350 16 14 354 358 340 331 333 328
43 27 345 33 353 37 4 349 24 358 44 337 9 17 8 14 32 2 50 30 357 13 19 0 2 346 350 30 3 26 358 31 21 10 1 355 352 345 351 354 349 341 328 327 342 333 344 336 334 346 354 12 341 1 7 359 0 353 341 339 337 329
3 59 356 32 3 27 19 352 18 9 31 339 9 32 8 354 47 4 58 37 6 12 14 9 7 350 349 32 5 25 14 28 22 11 1 357 353 351 353 349 354 341 343 338 341 344 341 333 358 355 346 10 339 17 352 344 357 347 338 339 351 337
358 33 24 26 29 12 10 353 12 11 30 324 350 43 358 357 40 22 42 43 13 16 17 12 19 354 345 14 5 23 27 28 26 10 354 352 353 354 358 354 353 350 349 345 339 349 340 347 356 350 351 20 340 349 345 351 355 342 343 357 346 345
22 32 30 38 20 19 352 14 17 21 14 332 345 29 11 23 24 34 28 38 20 15 22 17 22 356 346 0 22 12 17 30 25 7 356 359 357 358 357 355 348 354 347 340 341 344 346 352 350 356 354 44 25 340 356 353 355 349 353 344 355 342
35 22 22 34 19 13 358 10 30 39 340 353 358 5 34 30 31 32 16 38 18 22 17 19 20 11 351 18 22 12 6 6 32 19 359 359 358 1 358 352 342 0 344 343 346 353 4 351 343 15 0 16 60 343 11 344 353 356 340 348 0 341
31 42 17 19 19 303 85 3 50 69 359 344 35 1 26 30 39 34 20 31 17 23 8 29 4 24 14 12 21 1 1 7 39 19 354 9 6 12 359 353 342 340 310 344 358 5 2 349 344 11 358 23 17 19 11 351 352 353 348 352 353 350
27 10 100 306 275 266 107 237 98 294 40 349 70 30 4 37 40 27 18 37 22 10 23 20 13 35 23 11 2 11 14 0 15 6 3 21 16 18 3 354 351 349 358 10 1 12 2 344 357 359 4 28 10 35 10 7 344 352 353 353 352 352
26 358 332 307 358 332 105 123 53 110 56 358 89 75 17 24 67 10 19 34 19 354 26 10 23 51 33 9 359 15 13 354 5 352 348 27 28 19 8 4 360 349 358 18 11 20 359 352 351 3 9 8 49 32 24 6 352 354 359 352 356 357
55 16 352 4 22 10 5 5 19 27 78 33 38 75 50 356 66 37 14 28 16 342 23 359 28 55 41 17 355 5 13 7 1 354 347 23 32 23 16 8 354 342 359 16 19 29 6 354 355 359 359 19 58 50 38 19 8 14 345 3 0 350
30 58 24 10 21 26 17 7 355 18 354 55 14 43 65 13 17 76 17 31 10 342 5 351 39 71 43 23 353 352 23 22 2 348 348 17 41 29 18 4 355 351 353 13 19 25 9 353 3 350 2 1 37 40 49 33 13 0 354 5 2 351
13 55 45 19 17 47 34 19 352 22 334 42 40 20 43 13 338 78 51 14 29 351 343 10 13 74 56 26 9 358 14 23 10 356 359 13 13 40 16 11 10 6 358 353 8 26 10 352 12 351 349 346 352 308 89 40 11 358 348 8 0 351
47 42 59 29 12 41 56 35 25 13 14 329 105 111 101 123 331 116 72 33 26 0 350 353 18 50 40 24 11 0 350 26 24 12 9 7 353 18 17 14 10 5 358 351 346 17 10 3 7 349 358 338 354 335 356 3 353 325 349 1 2 355
63 72 58 36 24 10 15 206 187 139 319 38 318 2 21 51 0 28 77 43 4 22 8 348 16 43 51 31 23 10 347 2 38 25 15 1 3 2 11 11 5 0 0 356 346 356 5 3 29 356 356 356 325 326 344 357 341 313 341 352 358 353
73 63 71 46 19 22 21 2 332 177 209 194 80 47 26 350 17 354 71 83 44 353 31 350 349 39 48 35 9 36 359 355 43 41 22 11 5 351 2 11 7 2 356 352 343 344 349 359 7 51 81 344 338 358 5 324 331 311 350 341 1 351
117 82 66 47 16 28 43 31 8 18 21 359 74 29 33 17 339 35 8 344 87 5 16 16 343 25 53 30 5 30 30 7 9 22 34 15 351 353 359 3 10 348 354 349 343 342 347 352 359 354 25 101 160 258 336 306 358 337 326 324 334 354
70 72 63 76 50 5 59 17 41 26 359 58 26 104 129 101 305 20 13 340 351 101 29 12 348 2 51 40 4 5 48 20 358 10 13 5 347 9 0 357 7 350 7 348 354 346 350 349 351 1 2 13 3 293 174 350 356 316 336 339 10 351
99 83 72 34 74 50 36 33 18 33 25 27 36 338 93 82 271 80 68 6 334 54 63 10 5 0 29 39 10 7 24 35 5 12 353 14 344 357 8 359 6 5 10 359 353 349 348 355 356 344 15 6 348 338 340 335 252 50 318 322 338 349
108 109 103 76 65 54 49 54 43 8 0 44 13 9 17 124 341 0 91 53 4 355 34 32 22 359 10 39 18 16 9 19 20 10 351 12 356 3 12 2 7 5 14 360 349 358 356 347 353 353 354 358 338 348 338 329 348 19 347 333 335 347
119 101 86 90 81 66 44 42 70 24 358 47 78 55 341 318 127 303 79 105 61 45 351 13 43 19 347 34 21 18 11 9 16 359 1 15 11 2 353 6 7 7 5 5 350 360 354 340 355 345 353 347 360 355 359 350 358 356 347 357 336 340
111 102 95 78 64 83 70 60 59 38 27 19 13 82 17 341 338 108 58 12 39 76 18 37 2 55 351 21 27 18 17 7 2 355 353 12 22 1 348 6 4 0 347 10 352 348 350 344 352 352 349 29 32 17 353 348 348 350 359 349 341 344
121 125 123 92 76 45 57 62 84 72 58 31 25 13 45 35 345 21 41 23 352 18 49 5 28 359 16 15 8 21 14 8 347 349 352 359 15 1 358 6 5 359 342 360 359 350 349 346 355 359 359 1 66 22 8 356 344 335 1 342 351 328
128 122 128 122 84 84 70 54 21 33 55 80 37 29 13 52 15 6 22 20 11 4 352 5 27 28 359 356 11 0 353 5 352 346 356 350 6 12 2 11 357 351 352 0 358 349 349 351 347 4 359 346 18 43 12 334 343 343 350 355 350 337
145 138 127 130 126 107 70 62 59 35 18 38 67 47 42 20 7 353 338 93 34 354 9 342 37 10 13 338 17 354 334 6 360 358 353 348 355 10 4 357 357 342 2 351 0 351 349 349 346 352 358 353 351 44 10 336 352 349 357 359 356 352
144 144 143 126 126 104 93 60 52 59 39 38 21 59 64 46 11 345 345 12 98 2 25 351 0 47 341 341 0 353 323 354 358 353 354 344 346 356 359 354 5 345 358 350 10 357 350 350 351 349 2 360 351 352 4 347 359 356 347 3 4 358
154 145 141 135 107 100 88 85 82 70 81 67 45 36 84 345 93 330 3 357 15 28 48 4 324 23 349 333 341 347 321 346 353 348 353 345 350 347 356 359 14 353 352 352 355 8 354 354 350 348 350 5 0 357 352 339 357 0 345 333 33 336
150 141 143 136 118 107 107 104 75 71 38 56 82 55 340 63 65 131 324 63 24 4 3 12 332 16 320 328 323 332 314 338 348 345 348 358 350 351 357 359 2 0 353 349 357 356 354 0 353 348 347 8 5 2 359 350 330 351 336 335 82 263